RH
79 83 83 80 80 77 74 76 75 67 58 57 57 46 31 32 39 40 39 34 24 22 24 29 36 38 39 40 33 28 28 25 22 22 22 22 28 37 41 40 41 42 42 43 43 43 44 44 44 44 44 44 43 43 43 42 41 38 35 32 28 25 25 26 28 31 34 36 38 39 41 43 43 44
78 80 79 78 80 79 76 76 71 63 60 57 52 47 38 29 29 34 40 37 23 19 24 27 34 38 39 40 36 29 27 25 24 24 22 22 28 36 40 40 41 41 41 42 42 43 43 43 44 44 45 45 45 45 45 44 43 42 40 38 34 30 27 26 27 29 32 34 37 39 40 43 43 44
82 84 82 80 80 79 74 71 66 60 59 56 49 47 43 33 26 25 32 36 27 19 23 27 31 37 41 41 37 33 28 27 32 33 29 25 25 33 39 38 38 39 39 40 40 41 42 42 43 43 44 44 45 46 46 46 45 44 43 41 39 35 31 29 28 28 30 32 35 38 39 41 43 43
84 90 86 81 80 77 73 69 65 61 57 54 50 48 43 34 28 25 27 35 32 22 21 26 28 34 41 39 35 34 30 31 41 46 41 34 28 28 33 35 36 37 38 39 40 40 41 41 41 42 43 43 44 45 46 46 46 45 45 43 41 39 35 32 30 28 29 30 32 35 37 39 39 38
84 87 83 81 80 77 72 65 63 62 58 53 51 48 40 31 27 26 27 31 31 25 23 25 26 32 38 36 34 34 32 33 42 48 47 45 38 32 31 33 34 36 38 38 38 39 39 39 40 41 41 42 43 44 45 46 47 46 46 45 43 41 38 34 31 29 27 27 27 29 32 33 34 34
79 78 80 80 79 77 70 63 62 61 56 52 50 44 36 29 26 27 27 28 30 31 28 24 24 29 34 33 33 34 34 34 37 41 45 47 45 41 39 37 36 36 37 36 36 36 37 38 39 39 40 41 42 43 44 45 46 47 46 45 44 42 40 37 33 30 27 24 24 24 27 30 32 34
70 72 77 76 72 72 67 62 61 58 52 50 46 38 32 29 27 27 28 28 31 34 32 27 26 28 30 31 32 33 35 35 34 35 39 43 44 43 42 40 38 36 35 35 34 35 36 38 38 38 38 39 40 41 42 44 45 46 46 46 45 43 42 39 35 31 27 24 23 23 25 28 31 33
68 70 74 73 71 70 66 61 57 53 50 48 41 32 27 27 26 27 29 29 32 34 34 32 28 26 27 28 29 31 34 36 34 33 35 39 42 42 41 40 37 36 36 35 35 35 37 38 39 40 39 39 39 39 40 42 43 45 46 46 46 44 42 40 37 33 28 24 24 24 25 28 30 32
66 67 72 75 73 71 69 62 54 49 46 45 39 29 26 27 25 27 30 30 32 34 34 34 31 28 28 27 27 30 34 37 37 36 34 35 37 38 38 38 36 35 35 35 35 36 37 38 39 40 40 39 39 38 38 40 42 44 46 46 46 45 44 42 39 34 29 26 25 25 26 28 29 31
54 56 65 70 70 72 72 64 55 50 45 41 37 28 26 28 23 23 31 32 33 35 34 34 32 30 30 29 28 29 31 34 37 37 35 33 33 34 34 35 36 35 34 34 35 36 36 38 38 39 40 39 39 39 38 40 42 44 46 46 46 45 44 42 39 35 31 27 27 27 28 28 29 32
46 48 55 59 63 69 70 61 55 55 49 43 38 31 29 29 21 20 29 32 31 34 35 33 32 32 32 31 31 30 29 31 33 34 36 35 33 32 32 34 35 34 34 34 35 36 36 37 37 38 39 39 40 39 38 40 42 44 46 47 46 45 44 43 40 36 32 29 28 28 30 31 31 34
44 47 49 52 57 60 60 58 56 57 55 46 41 39 38 35 28 27 32 33 32 34 34 33 33 33 32 31 31 31 30 30 31 32 33 33 34 33 32 33 34 33 34 34 35 36 37 37 38 39 40 42 43 41 39 40 42 44 46 46 46 46 45 44 41 37 33 31 29 30 32 33 34 37
45 47 49 52 56 56 56 57 54 55 57 52 47 47 44 42 39 37 37 36 34 35 35 35 36 36 35 34 33 32 31 32 33 32 32 32 32 32 31 32 34 33 33 34 35 36 37 38 39 41 44 46 45 43 41 40 41 44 45 46 47 46 45 45 43 38 35 32 31 32 33 34 36 40
46 48 48 48 51 53 54 57 56 55 56 54 51 50 48 46 45 44 43 42 40 40 39 37 36 35 35 35 34 34 33 33 34 33 34 35 35 34 34 35 36 35 34 36 37 38 39 41 43 44 46 46 45 45 43 42 42 43 44 45 46 46 47 49 46 39 36 33 32 33 34 36 38 41
43 45 48 47 46 46 46 48 49 51 51 50 49 48 48 49 48 46 46 47 46 46 46 45 42 40 38 36 35 34 33 33 34 34 35 36 36 37 39 40 40 38 37 39 42 42 43 44 45 47 46 45 45 45 44 45 44 44 44 45 46 47 50 52 49 41 36 34 33 33 34 36 38 41
41 42 47 46 44 45 46 45 44 44 44 43 41 39 40 42 44 45 46 45 45 44 44 45 48 48 47 45 41 38 37 36 35 36 36 37 37 38 39 41 41 40 40 43 45 47 48 48 48 48 47 47 47 46 46 46 46 45 46 46 47 51 53 55 51 43 36 35 34 34 34 36 38 41
48 46 48 49 50 50 49 48 49 49 47 44 44 44 40 37 36 37 38 38 37 35 33 35 41 48 53 55 53 51 50 46 42 41 41 40 41 42 43 44 43 42 42 43 44 46 49 50 50 49 48 48 48 48 47 47 47 47 47 48 51 54 56 57 52 43 37 36 35 34 35 36 38 41
56 55 56 57 59 57 53 50 54 58 58 58 59 58 55 51 45 40 38 37 35 34 34 33 33 36 41 45 49 51 53 53 51 51 50 47 46 49 50 50 50 50 50 50 50 51 50 51 52 52 50 49 50 50 50 49 50 50 49 51 55 56 57 57 53 46 39 35 35 36 36 36 39 42
61 62 64 66 65 64 62 59 60 62 62 61 61 59 59 60 59 55 52 51 50 49 49 47 43 40 38 39 40 43 47 51 53 55 56 54 52 52 55 57 56 57 58 58 59 59 56 54 57 59 57 53 51 53 54 53 52 52 52 54 56 57 58 57 54 48 40 36 38 39 39 41 44 45
67 70 71 71 71 72 72 71 69 67 65 64 65 67 69 68 66 63 61 62 64 63 62 60 57 54 50 47 46 46 49 52 53 54 58 62 62 61 63 64 62 61 60 58 60 65 62 58 61 66 65 62 60 57 57 56 54 53 54 56 57 59 58 57 55 47 40 40 43 44 45 49 52 54
71 75 71 68 70 73 75 75 73 70 68 67 68 72 76 77 74 72 71 72 74 74 72 69 67 66 64 62 61 60 60 59 58 59 63 67 69 68 70 70 67 64 62 59 61 69 69 65 65 67 66 65 66 62 58 57 56 55 56 58 60 60 58 58 53 45 42 47 49 50 53 57 60 61
70 70 65 60 59 60 61 60 58 56 55 54 53 55 56 58 65 73 77 78 78 77 76 75 73 71 68 66 64 62 61 62 62 64 65 66 67 69 72 73 71 70 69 66 66 72 73 69 67 66 63 62 64 62 57 56 57 58 60 61 61 61 59 55 50 46 48 52 54 56 58 59 62 63
67 65 61 58 55 54 53 51 48 46 45 42 39 36 31 32 44 57 63 65 67 67 69 72 74 73 72 72 70 67 66 66 65 65 67 69 71 71 70 71 76 80 76 69 68 72 72 68 65 65 66 66 63 58 56 57 57 58 61 63 63 62 57 52 49 50 52 55 57 59 60 61 64 64
65 66 63 61 60 59 57 57 55 52 48 43 35 29 25 26 32 35 34 35 36 37 39 43 48 53 56 59 61 65 69 69 65 62 62 66 71 72 70 69 74 79 74 67 66 69 69 67 65 65 67 70 68 62 60 61 59 59 62 63 62 60 55 51 51 52 53 57 60 61 61 63 65 65
60 65 64 60 60 61 58 55 52 45 39 34 28 25 24 25 26 26 25 24 24 23 23 24 27 32 36 36 39 47 58 67 69 67 65 66 69 72 71 68 69 72 72 69 68 69 68 67 66 65 65 67 67 64 65 65 62 60 61 60 58 57 55 53 54 53 54 59 63 62 62 64 64 66
42 53 60 56 54 57 55 46 38 32 27 25 24 24 25 27 29 30 30 28 27 25 25 27 31 34 37 37 37 40 45 52 58 64 68 71 73 74 73 72 73 74 71 69 72 75 71 67 69 71 70 70 68 63 64 67 64 58 57 59 58 56 55 54 55 55 57 61 63 62 63 63 65 68
46 50 57 54 45 43 40 33 29 28 27 28 29 30 33 38 41 43 42 41 42 41 40 42 43 41 40 41 39 36 35 34 35 38 44 51 58 63 65 67 70 73 70 68 74 79 74 71 76 78 76 77 74 65 61 64 63 58 59 61 60 56 55 56 57 58 59 59 59 61 63 64 67 69
66 61 61 55 44 36 31 30 32 34 37 43 47 48 51 54 55 56 55 56 59 62 62 62 59 55 52 51 49 48 47 46 44 41 39 41 45 51 60 67 73 78 77 74 77 80 79 81 83 78 73 74 74 68 62 62 61 60 61 61 59 57 58 59 59 59 57 55 55 61 65 66 68 69
68 63 55 46 41 41 40 41 45 46 49 54 57 58 60 61 61 61 61 62 67 71 71 68 64 60 57 54 53 53 53 55 56 55 52 50 47 50 64 79 85 85 82 77 76 76 78 83 82 74 70 69 67 62 59 57 58 59 59 58 58 59 60 60 59 56 54 54 59 66 68 68 69 69
65 57 47 42 46 51 51 52 53 52 53 55 57 58 61 62 62 62 62 65 68 70 70 68 62 58 56 53 53 55 57 60 62 62 61 60 57 60 72 82 84 80 75 73 71 68 70 76 76 70 66 65 62 58 55 55 56 57 56 55 56 58 60 58 55 53 51 54 61 66 67 67 68 68
55 49 47 51 57 57 54 54 54 53 54 55 56 56 57 58 60 59 59 60 63 65 65 62 56 54 54 55 56 61 64 65 64 65 68 70 68 70 77 80 79 77 73 70 67 65 66 71 71 67 64 63 61 59 57 56 57 55 53 53 52 52 55 55 54 53 54 56 61 65 66 67 67 67
50 52 55 59 59 55 52 52 52 53 55 55 54 54 54 54 55 55 54 55 57 59 58 56 55 56 58 58 61 65 67 67 64 64 70 75 74 74 76 76 75 74 72 69 67 65 64 65 66 65 64 60 58 56 54 56 58 56 52 53 52 50 51 54 55 58 60 61 64 68 69 70 71 70
52 57 59 59 57 53 52 53 53 55 58 59 59 59 59 58 59 60 60 59 59 60 60 60 60 62 62 63 65 67 69 71 69 66 70 76 78 77 74 71 69 69 69 68 67 65 62 63 63 62 60 60 63 62 56 52 54 53 50 51 52 51 52 55 58 64 67 68 69 72 72 71 70 70
58 59 59 58 58 57 56 57 59 61 64 65 66 66 66 67 68 67 67 66 66 66 67 66 66 67 68 69 69 70 72 74 73 70 71 75 80 82 78 69 64 65 68 69 68 66 64 61 59 59 60 61 66 67 61 54 52 54 53 52 51 52 55 57 60 65 70 71 72 73 73 71 69 69
59 58 57 58 58 58 59 61 64 66 67 68 69 70 70 71 71 70 70 72 72 72 71 71 71 72 72 72 73 74 75 77 77 75 72 73 77 81 82 78 70 66 68 70 71 70 66 60 57 56 56 54 54 56 56 54 54 58 60 56 52 54 58 61 63 66 69 71 72 74 74 71 68 68
57 55 55 56 57 58 61 66 69 71 71 71 73 75 76 76 75 75 76 77 76 75 74 74 75 76 77 78 79 80 80 80 81 80 77 75 75 75 78 82 79 73 72 75 75 72 66 59 55 54 57 61 65 67 65 60 59 63 65 60 56 57 61 64 67 69 70 72 74 73 72 68 67 68
61 58 57 58 61 65 69 72 74 75 76 76 77 78 78 80 82 82 80 79 77 77 77 77 78 80 81 81 82 82 83 84 84 84 84 82 80 79 80 83 82 77 76 77 74 68 63 60 60 63 70 78 84 83 79 72 68 70 70 66 62 63 65 68 70 71 71 72 72 71 70 67 67 69
65 63 64 67 70 74 77 78 78 80 81 81 81 80 80 82 83 82 80 79 79 80 81 82 83 84 84 85 86 86 88 89 90 90 89 86 83 82 83 83 81 79 80 78 72 69 69 69 71 73 77 80 82 81 79 75 70 69 69 68 67 67 67 68 71 72 71 71 69 68 67 64 63 65
68 68 71 74 75 77 79 80 81 82 82 83 84 84 84 84 83 81 81 81 82 84 86 87 88 89 89 90 90 89 89 89 89 89 88 86 84 82 82 82 80 80 82 82 77 75 75 74 74 73 71 71 73 73 71 69 67 67 66 66 66 67 67 69 72 72 70 68 65 63 62 61 61 62
71 71 73 75 77 78 80 80 80 80 80 82 85 85 85 84 83 82 83 85 86 89 92 93 93 94 94 94 93 91 89 87 86 85 84 82 82 81 80 80 78 77 78 77 75 74 74 72 72 72 69 68 70 71 69 68 69 72 72 71 70 70 69 69 72 73 73 69 64 61 61 61 61 62
75 74 75 78 81 82 82 80 79 79 80 83 86 86 84 84 84 84 86 88 90 94 96 96 97 98 98 97 94 93 91 90 90 89 87 85 85 84 83 81 79 77 78 78 77 77 74 70 69 71 70 69 70 72 74 75 77 79 78 74 73 74 73 72 72 73 73 70 65 65 66 63 62 64
81 79 79 81 85 88 87 83 80 82 85 87 88 86 84 84 86 88 89 91 94 96 96 97 99 100 99 97 95 94 94 94 94 92 90 89 89 89 89 88 85 80 79 79 78 76 73 69 68 68 69 68 69 71 72 73 76 78 76 72 72 75 75 72 69 67 67 66 65 63 61 58 58 64
86 84 83 85 88 92 92 88 86 87 89 90 88 86 85 85 88 92 93 94 95 96 95 95 95 95 94 95 95 95 95 95 95 94 93 93 93 92 92 92 91 87 83 81 79 75 73 72 71 70 69 68 69 69 67 66 69 71 70 67 67 68 67 66 65 63 63 63 59 53 51 51 55 62
91 87 85 88 93 97 98 97 94 92 90 89 88 87 87 87 87 89 90 88 86 84 84 84 84 85 86 87 89 91 93 94 93 93 93 94 96 96 95 94 93 91 89 87 85 82 80 80 78 76 74 71 69 69 67 66 66 67 66 64 64 63 63 66 67 65 64 64 59 54 53 55 57 61
94 89 88 92 98 100 100 99 97 93 89 87 87 87 87 88 87 85 84 81 76 73 71 71 72 75 78 81 83 87 90 92 91 90 91 92 92 93 93 93 93 91 89 89 88 86 86 85 82 80 79 77 74 74 73 70 69 68 66 65 65 65 67 70 70 68 68 69 68 66 65 65 64 63
Wind_Speed
15 16 15 15 14 12 12 13 14 17 19 14 10 11 16 14 7 4 4 5 10 15 16 18 17 14 14 12 11 14 15 16 16 15 14 14 16 16 15 14 13 12 11 10 10 9 9 8 8 8 8 8 8 8 8 8 8 8 8 8 7 7 7 6 7 7 7 8 8 9 9 10 11 12
15 15 15 14 14 14 14 13 15 18 17 15 14 15 15 14 12 9 5 4 10 16 16 18 19 17 16 14 12 14 16 16 15 15 14 14 15 16 14 13 12 10 9 8 7 6 5 5 5 4 4 4 5 5 5 6 6 6 7 7 7 7 7 6 7 7 7 8 8 9 9 10 11 12
14 13 14 13 12 14 15 13 15 17 17 16 16 17 16 12 13 14 10 6 9 15 15 18 21 19 16 14 14 15 15 15 14 13 13 13 15 16 15 13 12 10 9 7 6 5 4 3 2 1 1 1 1 2 3 4 5 5 6 6 7 7 7 7 7 8 8 9 9 10 10 11 11 12
12 13 14 14 13 14 15 14 15 15 16 18 16 16 17 12 13 16 15 10 9 12 14 18 22 20 17 15 16 17 15 14 15 15 13 12 14 16 16 14 13 12 10 9 7 6 5 4 4 3 3 3 3 3 3 3 4 5 6 6 7 7 7 7 7 8 9 9 10 11 11 12 12 13
12 14 14 13 13 14 14 16 16 14 16 17 16 16 14 9 12 15 17 17 12 10 12 18 22 20 18 18 18 19 17 16 17 18 16 14 14 15 16 15 15 14 12 11 10 9 8 7 7 6 6 6 6 6 6 5 6 6 6 7 7 7 8 8 8 8 9 10 11 12 12 12 13 13
13 14 14 13 14 14 14 16 16 15 16 15 16 18 13 9 11 12 16 21 16 12 12 17 22 22 19 19 19 20 19 17 17 18 17 18 17 15 16 17 17 16 15 14 12 11 10 10 9 9 9 9 8 8 8 8 8 8 8 8 8 8 8 8 8 9 9 10 11 12 12 13 13 13
11 13 14 13 14 14 15 17 16 15 17 17 17 16 11 10 12 12 14 22 20 15 14 15 20 23 20 18 20 21 20 18 18 17 16 18 18 17 18 18 17 17 17 17 15 14 13 12 11 11 11 11 11 11 11 11 11 10 10 10 10 9 9 9 9 9 10 10 11 12 12 13 13 13
11 13 14 12 14 15 15 16 16 16 18 18 15 12 11 11 13 11 11 20 21 18 16 15 18 23 21 18 20 22 21 19 18 16 16 18 18 18 19 19 17 16 17 19 18 17 15 14 13 13 13 13 13 14 14 13 13 13 12 12 11 11 10 10 10 10 11 11 11 12 12 13 13 13
14 13 14 14 16 17 13 14 16 16 18 17 13 11 13 10 12 11 8 15 22 22 20 18 17 20 21 18 17 20 22 21 18 16 18 19 19 20 21 21 20 18 18 20 19 18 17 16 15 15 15 15 16 16 17 16 16 15 15 14 13 12 12 11 11 11 11 11 11 12 12 13 13 13
13 11 14 13 14 16 13 14 14 12 13 14 11 12 15 12 14 12 4 7 15 16 18 20 19 17 20 19 16 16 20 22 21 20 20 21 21 21 23 23 23 22 21 21 20 20 19 18 18 17 17 18 19 19 19 19 18 17 17 16 15 14 13 12 11 11 11 11 12 12 13 13 13 13
11 8 11 9 9 13 12 14 13 7 7 7 7 8 11 11 16 16 7 4 6 4 7 15 16 14 18 20 17 15 16 19 23 24 23 22 22 22 23 25 24 22 21 21 21 21 19 18 18 18 19 19 21 21 21 21 20 19 19 18 17 15 14 13 12 12 11 11 12 12 13 13 13 13
10 8 9 7 7 10 9 11 13 7 5 2 3 2 1 4 12 14 8 7 7 6 5 8 9 7 10 13 13 13 13 13 17 21 22 24 23 21 21 23 23 21 20 21 22 21 20 20 20 20 20 20 21 22 23 22 22 21 21 20 18 17 16 14 13 12 12 11 12 12 12 12 13 13
8 8 9 9 9 10 8 8 11 10 6 1 1 2 3 4 5 5 4 5 7 7 7 7 8 7 6 8 11 13 14 13 12 12 13 17 18 16 15 17 20 21 20 21 21 21 22 22 22 22 21 20 20 21 23 24 24 23 23 22 20 19 17 15 13 13 12 12 12 12 12 12 12 12
5 7 9 9 9 9 8 8 8 9 7 2 2 1 1 1 3 1 1 2 3 5 7 7 8 9 10 11 11 12 13 14 15 15 13 11 11 11 11 11 14 18 21 22 21 22 22 22 23 23 22 22 22 21 22 24 24 24 24 23 21 19 17 15 14 14 13 13 12 12 12 12 12 12
6 8 10 9 7 6 7 7 6 6 6 4 2 1 1 0 1 2 1 2 3 5 7 6 6 7 9 10 11 11 13 15 16 17 17 16 15 14 12 12 12 13 17 19 20 22 23 23 24 24 24 24 24 24 23 22 23 24 24 23 22 19 18 16 15 15 14 13 13 13 12 13 13 12
5 9 10 9 7 7 7 5 4 3 3 3 2 1 2 2 2 2 3 4 5 6 8 8 8 7 8 9 9 9 11 12 12 14 16 18 20 19 18 17 17 17 16 15 16 20 22 22 24 25 26 25 25 23 22 21 22 23 23 23 22 19 18 17 16 15 15 14 13 13 13 13 13 13
6 8 11 12 10 9 9 6 4 2 1 2 2 3 3 4 5 6 6 7 8 10 10 11 11 9 9 11 10 9 10 10 10 11 13 16 17 17 18 17 18 18 18 19 20 20 19 20 24 27 26 26 25 22 19 20 22 23 23 22 21 19 18 17 17 16 15 14 14 14 14 14 14 14
9 9 10 11 10 8 7 7 6 5 4 3 3 3 4 4 6 7 9 10 10 12 13 14 15 15 14 15 14 13 13 13 13 13 14 15 15 16 17 17 17 17 16 17 18 16 16 17 21 25 25 26 26 22 19 20 21 23 23 22 21 19 18 18 17 16 16 15 14 14 13 13 13 13
7 8 9 8 7 5 5 5 4 4 3 2 2 2 3 5 6 6 7 8 9 11 12 14 16 17 18 19 19 18 18 18 17 17 17 18 18 19 20 20 19 18 17 16 13 12 16 19 20 21 22 24 25 22 19 21 22 23 24 23 21 20 19 18 17 16 16 14 13 12 11 10 10 10
6 8 10 9 6 3 4 4 2 1 2 4 4 5 5 6 7 8 9 10 10 10 11 12 14 16 18 19 20 20 20 20 21 21 21 20 20 21 21 19 20 20 20 21 18 17 20 24 23 22 21 20 22 23 22 22 23 24 25 24 22 20 18 17 16 15 14 12 10 8 6 6 7 9
6 6 7 6 4 3 3 2 2 3 4 5 5 5 6 6 8 9 9 10 12 12 13 14 15 16 18 19 21 22 23 24 24 23 22 20 20 21 19 17 20 23 24 25 23 21 21 23 23 23 21 20 22 25 26 24 24 25 26 25 23 20 18 15 14 13 11 9 6 3 3 4 7 10
6 6 5 3 2 1 1 2 3 4 4 5 5 6 7 8 8 9 9 10 12 14 16 17 18 19 20 21 23 25 27 28 27 27 27 26 23 22 20 19 21 23 23 24 22 20 21 23 22 23 23 23 25 29 29 26 25 27 27 25 23 20 17 14 12 10 8 6 3 0 2 3 6 10
5 6 7 5 3 2 3 3 4 5 5 6 7 8 10 10 10 11 12 13 15 17 18 19 20 21 22 22 24 26 26 27 27 27 29 29 27 26 26 24 19 16 17 21 20 20 23 24 25 26 22 17 17 24 27 27 28 30 29 27 24 20 16 13 11 8 6 5 5 3 1 2 5 9
8 8 7 6 5 4 5 6 7 8 9 10 12 13 14 13 13 15 17 18 20 21 23 24 25 26 26 27 27 27 27 28 28 28 29 29 29 30 29 27 22 18 20 23 22 22 24 25 27 29 26 17 11 14 21 26 29 30 29 27 24 20 15 12 9 7 6 6 8 6 3 1 3 6
10 11 8 7 7 7 7 9 12 14 15 16 16 16 16 15 15 18 19 20 21 23 24 25 25 25 26 26 27 27 27 28 28 30 31 30 30 30 30 29 28 26 26 25 23 25 28 28 28 29 30 25 18 15 19 23 25 27 27 25 21 17 12 10 8 7 6 7 11 10 5 1 1 2
4 6 6 7 10 10 11 13 14 15 16 16 15 14 14 13 14 15 17 18 20 22 23 23 23 23 23 24 25 25 26 26 26 27 28 28 28 28 30 31 30 29 29 28 25 26 27 27 25 23 22 21 17 15 17 18 20 23 23 20 16 13 9 8 7 7 7 8 11 11 6 2 1 1
5 4 5 9 12 13 14 14 13 13 12 13 12 12 11 11 12 14 15 17 18 19 20 21 22 23 23 23 25 26 27 28 28 28 29 29 29 30 31 33 33 32 32 31 28 27 26 26 23 18 16 15 14 12 13 13 15 20 21 18 14 10 8 8 7 7 8 7 7 8 7 3 2 2
5 6 8 10 11 12 13 12 11 11 10 9 9 9 8 9 10 12 14 16 17 18 18 19 20 21 20 21 21 21 22 24 25 27 28 29 30 32 31 31 32 31 30 29 27 25 25 23 19 16 17 18 14 12 11 10 11 15 19 17 13 10 10 10 8 8 10 8 7 10 10 5 3 2
6 9 12 13 12 10 9 9 10 11 10 9 9 9 10 10 11 12 14 15 16 17 17 18 19 20 19 19 19 21 23 24 24 23 24 26 28 29 26 23 22 22 21 21 19 16 15 15 13 12 13 13 11 11 11 10 10 12 14 14 12 12 13 12 9 9 10 7 5 9 8 4 2 2
9 12 14 13 11 10 10 10 11 11 11 10 11 11 12 12 12 13 14 14 15 16 18 19 20 21 21 21 21 22 23 23 22 23 25 26 25 22 20 17 15 14 13 13 12 10 10 12 12 10 7 7 7 7 7 8 8 9 12 14 13 13 14 13 10 10 10 8 7 8 6 4 3 2
10 12 10 9 9 10 10 10 10 11 11 12 12 13 13 13 13 14 14 15 16 17 18 18 20 22 22 21 20 20 20 21 23 25 27 29 28 21 16 14 12 10 9 8 7 8 8 9 11 11 8 8 8 7 5 4 5 7 8 11 12 11 11 13 10 8 9 10 9 7 6 5 5 5
9 9 9 9 9 10 10 10 11 13 14 14 14 14 15 14 14 15 16 16 16 17 19 21 22 23 22 21 20 19 19 20 22 24 26 29 31 24 14 12 8 6 6 5 5 8 8 8 9 9 8 8 8 8 8 7 6 5 5 8 12 10 8 9 8 5 6 8 6 4 4 4 5 5
8 9 10 10 11 11 12 13 15 15 15 15 15 15 16 16 16 16 17 17 18 20 22 22 22 21 21 21 20 19 18 17 18 21 24 26 28 25 14 10 8 7 7 6 6 7 7 8 8 8 7 7 6 7 11 13 11 9 7 8 11 11 7 7 6 4 3 4 3 2 3 5 6 7
9 10 11 12 13 15 15 16 16 15 15 16 15 16 17 17 17 18 18 18 20 22 21 20 20 20 20 21 20 20 19 19 19 20 23 24 25 23 19 14 9 8 10 8 7 7 7 7 8 8 8 8 6 7 10 12 11 10 9 9 11 12 9 8 7 4 2 3 2 2 4 6 7 9
8 10 11 12 13 13 13 14 15 15 15 16 16 16 17 17 18 18 18 19 21 20 20 21 21 21 20 20 20 20 20 20 20 21 21 22 23 23 23 20 12 7 9 9 9 9 8 8 8 8 7 7 6 5 5 7 9 8 7 7 12 13 10 8 6 4 2 3 3 4 6 7 5 8
8 9 10 11 11 12 13 14 15 16 15 16 17 17 17 17 17 17 18 19 20 20 22 24 23 22 22 22 22 22 22 22 22 22 20 20 22 24 25 23 18 12 10 11 11 10 9 8 9 9 8 6 3 3 3 6 11 8 2 6 12 12 8 7 6 5 4 3 4 6 7 7 4 9
11 12 12 12 13 14 15 15 16 16 15 15 16 17 17 17 17 16 17 18 19 21 23 24 23 22 23 23 24 25 25 24 23 23 21 18 19 22 23 22 19 15 12 11 11 10 9 9 10 11 9 6 3 1 2 5 10 8 2 7 11 11 8 6 5 5 5 5 6 8 9 8 5 8
13 14 14 15 15 15 15 15 15 15 14 14 14 15 16 16 16 15 16 17 18 20 20 20 20 22 22 23 25 26 25 23 21 21 21 19 18 19 19 17 15 12 9 10 10 9 9 8 8 8 7 5 3 1 2 5 7 6 2 5 8 9 8 7 6 5 6 7 7 8 8 7 5 6
14 14 14 14 14 13 12 12 12 13 14 14 14 14 15 15 15 14 15 16 17 18 18 18 19 21 21 21 20 19 17 16 14 13 14 13 13 14 13 11 9 7 8 9 9 8 7 7 7 8 8 9 8 4 4 8 8 5 2 1 3 6 7 7 6 5 6 7 7 6 5 5 6 6
13 12 12 11 11 11 11 11 12 12 12 13 13 13 14 14 15 14 14 15 16 16 15 15 16 17 16 16 15 13 11 11 11 11 10 8 6 5 3 2 5 7 8 8 7 6 6 6 8 9 9 10 10 8 8 9 8 6 4 4 6 7 9 8 6 3 1 1 2 2 1 3 6 8
11 11 10 10 10 11 11 11 12 12 12 11 12 12 11 12 13 13 13 13 14 13 12 13 14 14 14 13 13 12 12 13 13 13 13 13 12 12 10 9 8 7 7 7 7 8 7 6 6 7 7 7 7 8 8 8 9 8 6 5 8 9 9 8 5 1 2 2 0 0 2 5 4 6
9 10 10 10 10 10 10 10 11 11 11 10 10 10 10 11 11 10 11 12 11 11 12 13 14 14 14 15 14 14 15 15 15 15 14 15 15 15 14 14 13 11 9 10 10 10 8 6 5 6 5 5 6 6 5 5 11 13 8 6 8 11 8 5 3 2 3 3 3 2 3 5 3 2
9 10 10 10 9 8 8 9 10 10 10 10 10 10 10 10 9 9 10 11 12 12 12 13 13 14 14 15 15 15 15 15 15 15 15 15 15 14 14 14 14 13 12 12 10 8 7 6 6 5 3 3 4 4 2 3 9 14 12 9 9 10 7 4 2 2 3 3 2 1 1 1 3 2
8 9 8 8 8 6 6 7 9 10 10 10 10 10 9 8 9 10 11 12 13 13 13 13 14 14 13 13 14 14 15 15 15 15 15 15 14 13 13 12 12 12 12 10 8 7 6 6 5 5 5 3 2 2 4 5 6 8 11 10 8 7 6 4 3 3 3 3 2 2 1 1 3 4
7 7 7 7 7 7 6 7 9 10 10 9 9 10 10 9 9 9 9 10 11 13 13 14 14 14 14 14 14 14 14 14 14 14 14 13 13 13 13 13 12 12 11 10 8 7 6 6 5 4 4 3 2 4 5 4 3 3 8 10 8 6 6 5 3 3 3 3 3 3 2 3 5 5
Wind_Direction
179 180 176 169 171 175 177 177 183 188 185 189 206 191 176 173 164 149 166 161 152 156 152 140 142 157 168 178 177 168 164 160 159 160 158 154 154 153 150 145 143 140 136 129 124 119 112 106 100 93 89 82 76 71 65 59 52 46 42 36 31 24 19 12 5 1 354 348 347 346 346 346 345 346
182 184 177 172 175 179 183 185 184 185 186 188 189 198 204 189 170 163 154 146 153 157 159 152 151 161 174 183 180 173 173 168 166 169 168 168 167 165 165 163 161 159 155 151 144 137 129 120 112 99 92 82 70 63 54 47 42 35 29 24 20 15 10 4 357 352 346 341 338 336 335 334 334 335
174 178 174 175 181 182 183 184 182 185 192 193 187 204 223 209 181 169 149 134 157 164 167 159 157 166 175 179 176 177 179 174 172 176 177 180 180 179 181 180 182 183 180 179 178 174 175 168 163 163 131 65 35 30 19 19 19 13 9 6 5 4 0 356 350 345 342 338 334 332 331 329 328 328
171 177 173 175 179 178 179 181 180 184 192 193 192 212 228 217 193 175 151 133 148 169 174 159 158 170 173 171 177 182 182 176 175 186 196 198 193 193 196 197 200 203 202 204 206 209 215 222 230 239 251 264 273 289 305 325 338 342 345 345 346 349 349 348 344 341 338 335 331 328 325 324 324 324
177 178 172 174 178 175 178 181 180 182 189 195 204 220 223 198 183 174 147 133 139 165 173 159 160 172 173 172 182 187 188 182 176 187 207 213 206 205 210 213 215 216 216 219 221 225 231 235 242 247 254 261 267 273 279 292 303 312 319 323 329 333 336 338 337 336 333 331 330 326 323 323 323 324
180 176 170 176 178 174 179 181 179 184 190 199 212 218 210 172 177 184 150 140 150 166 169 163 163 170 176 178 184 193 198 194 183 188 208 217 217 221 226 229 232 231 230 233 234 236 240 244 249 253 258 263 268 272 276 281 287 293 300 305 311 316 322 327 328 329 330 329 329 326 324 324 324 325
176 172 168 177 178 176 180 178 177 186 194 206 213 207 192 172 192 206 165 151 160 169 175 177 167 167 180 186 185 196 207 203 195 195 210 220 222 227 235 240 242 237 234 236 238 241 243 246 252 257 262 267 271 275 277 279 281 284 287 293 299 304 311 317 320 324 326 327 329 328 325 324 323 324
160 160 166 179 183 182 185 182 183 190 197 212 220 193 170 179 200 215 181 162 165 169 180 192 178 172 185 195 190 195 202 204 204 202 208 220 224 225 229 236 241 242 242 243 243 244 245 249 256 261 265 271 274 277 278 278 278 278 279 283 288 294 300 307 314 320 324 326 327 326 325 323 323 324
154 155 166 176 179 182 192 193 192 195 200 216 226 185 166 184 204 214 201 172 171 175 180 194 196 182 184 196 199 196 193 192 199 205 206 214 221 223 225 229 234 240 246 245 240 237 240 247 255 261 266 271 274 276 277 276 274 273 273 275 279 286 292 300 308 316 320 323 324 323 322 322 324 325
139 148 166 171 175 179 192 200 199 206 212 221 227 189 175 189 199 202 211 170 176 182 182 192 205 191 180 193 204 202 197 190 190 200 210 215 220 223 225 226 228 234 239 237 233 232 239 248 254 259 265 270 273 274 274 272 270 269 269 270 274 280 285 292 301 310 316 318 320 319 320 322 323 324
120 130 152 158 174 176 184 196 202 231 248 236 239 201 180 188 193 194 208 205 202 223 194 196 209 195 183 193 200 201 206 202 197 201 207 213 220 225 225 224 225 230 231 230 230 233 240 248 254 259 264 268 271 271 269 268 266 265 266 268 270 275 280 286 293 303 311 314 316 317 318 320 321 322
111 112 123 129 157 165 173 191 201 236 280 265 260 278 65 143 175 182 189 198 218 263 252 225 239 224 194 203 213 215 222 222 215 211 208 211 218 224 226 225 226 230 229 225 226 230 236 243 248 253 259 266 270 270 267 264 262 262 262 263 267 270 275 280 288 298 305 310 314 316 316 318 319 318
104 110 118 119 127 141 153 174 195 226 256 244 183 299 8 74 138 165 187 198 219 250 256 246 255 262 247 240 243 243 249 259 261 250 233 224 225 231 236 231 229 233 233 226 224 229 236 242 247 251 256 263 268 269 268 264 260 260 260 260 263 267 270 276 285 295 303 309 314 315 315 317 316 314
117 127 140 136 125 130 140 150 175 207 224 210 131 185 319 69 103 117 267 255 259 278 283 264 247 249 251 246 243 243 250 264 273 276 277 271 262 267 270 260 249 240 229 222 225 234 240 241 244 249 255 262 264 263 266 267 265 261 259 259 260 262 266 272 283 293 301 306 310 312 313 313 311 308
150 147 149 146 141 142 140 141 156 179 195 194 152 138 189 171 146 177 248 313 337 336 331 320 292 271 263 259 254 252 255 259 258 260 270 277 279 281 280 279 278 256 227 217 221 231 238 240 243 250 254 256 258 260 264 268 265 260 257 256 256 258 262 268 280 292 297 301 303 307 310 309 307 303
156 160 145 127 131 140 132 126 128 143 187 206 211 234 247 253 253 242 257 277 298 317 326 328 322 315 313 307 291 278 276 269 257 254 258 260 261 262 261 261 266 264 252 243 239 236 235 235 237 245 253 253 253 259 265 267 262 256 252 250 251 252 257 265 278 288 292 297 299 302 306 306 303 300
85 125 119 108 114 127 132 132 123 114 215 245 286 312 305 287 275 271 271 276 284 291 294 295 293 294 305 309 307 311 312 301 288 279 270 262 257 255 253 253 259 265 265 265 264 254 243 237 232 236 249 255 251 249 250 253 257 256 250 246 246 248 255 266 277 286 291 294 297 301 306 305 301 300
73 79 83 93 103 113 130 139 125 111 112 100 60 21 355 322 298 286 281 279 280 283 284 284 282 277 278 282 284 290 297 296 293 290 280 272 266 263 263 263 266 271 270 268 266 257 251 252 243 239 245 248 245 242 237 240 249 252 246 242 243 247 256 266 274 283 289 291 295 301 305 304 303 304
80 73 72 88 100 98 110 117 108 110 114 90 44 2 331 317 309 300 291 286 280 277 275 274 275 274 274 276 277 278 281 282 282 283 282 277 271 267 268 267 264 264 263 260 255 247 252 258 256 258 260 248 241 242 240 238 244 246 242 238 238 243 253 262 270 279 285 289 296 304 308 308 309 310
95 95 85 89 97 84 84 92 80 1 340 344 350 349 336 321 309 302 298 298 294 285 274 267 267 268 270 272 273 274 274 275 275 278 280 279 272 265 263 264 261 257 256 255 248 244 254 258 256 263 266 251 241 245 243 237 238 242 239 232 230 237 245 253 263 273 280 289 300 312 324 330 335 337
116 112 89 80 78 50 43 44 340 318 322 326 334 338 326 318 317 314 304 294 289 282 276 273 273 272 271 269 270 274 276 276 276 276 275 273 268 263 259 257 257 257 258 259 253 246 252 257 254 255 257 251 245 245 242 233 229 232 233 228 225 230 235 243 255 265 276 291 303 331 2 4 4 358
128 125 110 103 96 30 10 344 319 318 324 326 331 328 316 314 319 315 302 290 283 276 271 272 275 276 276 273 272 275 276 275 274 272 271 270 266 264 262 258 258 261 260 257 252 245 244 247 249 253 260 261 251 241 236 230 223 221 222 221 222 224 227 238 250 257 274 284 270 2 10 2 5 1
108 112 107 108 104 59 30 15 348 341 345 341 337 333 328 323 312 298 293 294 294 289 283 279 279 280 281 280 280 280 278 276 273 269 268 266 260 259 260 259 258 260 259 258 254 245 242 246 249 249 252 258 250 236 231 227 221 217 214 213 216 217 222 235 244 251 267 257 225 224 296 348 7 2
72 73 69 66 60 34 11 1 348 340 335 330 327 325 323 318 307 297 295 295 294 293 291 289 287 286 284 284 286 285 284 282 277 272 271 269 263 257 255 256 256 253 255 259 255 246 246 251 250 242 236 236 236 230 227 223 217 213 212 211 211 213 218 226 234 245 251 233 223 231 246 314 14 12
59 51 31 3 356 350 338 333 331 327 324 323 323 322 319 316 311 305 302 301 299 298 297 296 295 293 292 290 289 287 285 283 280 277 275 274 270 263 257 256 256 253 256 261 258 251 250 248 242 233 227 229 229 219 215 215 210 207 209 212 211 208 210 215 226 240 238 226 228 231 229 233 35 32
21 33 8 321 316 323 326 326 324 322 323 326 327 327 327 324 318 313 311 310 309 307 305 304 301 297 294 291 289 288 286 286 285 282 279 276 274 270 265 261 256 255 262 267 265 257 250 243 242 240 232 232 231 209 193 194 198 200 203 206 205 201 203 215 227 239 237 234 236 234 224 204 168 133
344 343 325 304 302 311 319 325 328 329 332 335 336 337 339 335 328 323 321 320 318 315 311 307 302 298 296 293 289 289 288 289 289 289 288 287 284 280 278 273 267 264 266 269 270 266 254 245 247 254 256 253 244 214 189 181 187 193 191 190 193 195 197 205 217 235 239 237 233 221 210 206 209 195
357 329 323 323 324 325 327 333 342 349 352 353 351 351 351 346 339 333 331 330 327 320 313 307 302 302 302 298 294 298 302 303 301 296 291 290 289 287 283 274 266 263 261 263 268 267 256 245 241 249 257 255 238 211 195 181 175 178 176 175 186 202 203 202 212 229 234 234 219 202 198 205 211 192
348 337 337 341 347 354 358 2 6 10 12 6 359 356 349 340 335 334 334 333 328 319 311 305 301 300 302 301 302 309 313 315 317 313 304 298 292 286 277 263 254 252 250 249 253 256 251 244 239 243 246 238 217 195 181 167 162 172 178 184 198 207 202 200 208 216 214 205 177 176 183 197 186 162
347 344 340 345 0 15 18 14 8 6 3 358 355 353 347 339 337 335 331 326 319 311 306 306 307 309 313 314 314 316 318 320 326 330 329 324 312 291 269 254 247 243 240 241 242 248 255 247 237 236 228 202 193 192 180 172 183 203 208 204 197 190 190 197 207 211 200 180 162 169 186 208 203 228
348 348 348 3 18 16 10 6 1 360 2 2 0 358 355 353 350 344 335 328 319 311 310 319 327 330 333 333 329 328 328 328 327 329 332 334 330 311 274 253 249 239 237 251 246 232 232 225 220 226 221 194 190 193 185 200 243 252 238 212 189 171 174 186 193 194 185 176 177 188 206 228 244 248
3 9 23 32 20 5 5 11 12 14 15 12 8 4 2 359 354 347 344 342 336 330 332 337 339 338 339 340 338 334 330 327 324 321 323 329 331 320 279 235 226 216 209 220 220 215 220 217 213 215 207 195 201 205 198 206 225 238 242 215 193 179 167 164 160 157 172 178 180 184 198 230 250 238
28 29 28 24 15 12 17 20 20 19 15 11 7 4 1 358 355 353 352 349 344 343 344 343 341 340 340 340 339 336 331 326 320 315 314 319 326 323 300 250 229 212 194 191 202 220 231 226 215 211 196 182 182 186 188 192 193 197 221 213 184 171 167 166 154 134 143 161 159 160 201 240 252 240
40 30 22 20 20 20 20 20 20 18 13 9 4 358 356 356 355 355 353 347 344 345 348 349 348 346 344 341 337 333 328 322 315 312 310 310 312 316 314 299 268 212 190 190 200 214 228 224 216 213 201 189 180 173 181 186 184 195 226 220 171 148 143 161 170 165 151 153 158 197 247 268 261 234
39 33 28 25 23 19 18 20 21 18 11 6 0 355 353 352 351 350 348 345 345 348 349 348 346 342 337 333 329 324 321 317 311 308 305 303 301 303 305 301 285 218 188 192 198 204 213 212 204 199 190 191 205 212 205 204 206 217 235 203 166 148 131 139 160 173 178 189 205 229 263 282 251 202
28 38 34 25 19 21 23 23 20 17 10 2 360 359 357 354 353 352 347 343 343 343 341 341 342 340 335 331 327 323 320 317 312 306 298 293 293 295 294 291 281 255 223 209 201 198 199 196 191 184 170 162 186 234 242 229 229 238 228 145 159 159 141 137 151 155 163 203 222 227 254 274 226 177
22 34 34 24 22 26 26 21 16 12 6 360 359 360 357 354 352 349 344 341 339 337 338 340 341 339 335 331 327 325 322 317 312 307 300 291 287 287 284 277 266 251 227 207 199 193 185 181 181 178 166 147 148 231 272 239 230 231 131 117 147 158 154 155 164 167 187 219 229 229 245 255 207 171
29 32 31 26 24 23 19 15 12 9 5 1 359 355 353 352 351 350 349 347 344 344 347 348 345 340 338 335 330 327 324 321 314 305 300 295 288 281 272 258 244 230 203 188 188 182 172 169 172 177 171 144 124 183 209 197 205 213 161 111 136 154 164 173 179 190 209 224 229 238 251 248 209 187
35 31 29 25 21 17 11 8 8 7 5 3 359 358 1 1 358 359 359 354 354 358 359 354 347 343 341 339 336 332 335 341 342 332 320 309 294 281 267 241 215 186 157 155 160 155 139 119 109 117 124 111 89 84 151 160 163 172 178 166 170 172 172 174 186 216 239 238 233 239 249 235 212 207
33 30 30 24 16 13 10 8 8 8 8 6 2 4 11 11 7 12 14 6 4 7 4 355 352 353 351 348 348 351 359 11 22 25 23 20 11 352 335 159 138 118 112 117 121 110 92 84 82 82 90 96 90 89 116 134 139 139 150 186 203 191 176 176 192 222 250 210 209 213 264 259 234 220
29 25 26 23 17 16 13 9 9 12 16 15 7 8 17 20 18 24 26 18 13 16 13 9 10 12 13 15 19 24 29 32 36 42 46 46 44 42 46 57 65 74 84 88 83 76 68 61 62 64 68 82 100 114 125 140 157 160 152 168 192 189 177 178 195 251 32 38 353 304 329 321 285 213
28 23 25 25 20 19 18 16 15 19 23 23 19 22 32 33 29 30 31 29 30 30 26 26 29 29 30 33 35 38 41 41 39 42 44 44 42 42 43 43 41 47 68 80 77 74 69 60 67 87 87 83 109 138 154 166 170 168 154 141 169 180 177 177 204 292 312 301 297 289 295 327 4 107
29 26 26 26 23 22 24 23 23 27 31 31 31 36 38 33 32 37 38 36 37 35 33 37 41 40 38 38 37 37 40 40 38 39 39 39 38 38 40 41 40 43 57 66 62 56 56 58 69 84 83 87 127 145 103 92 143 159 156 139 145 162 170 178 216 250 249 245 250 244 257 343 24 26
34 31 30 31 28 25 31 36 37 38 37 37 40 44 44 40 44 50 49 45 45 46 47 48 47 41 37 36 35 34 36 37 37 38 37 35 34 35 39 43 44 43 45 43 37 36 41 41 41 38 27 24 92 97 59 66 109 148 158 155 152 157 161 169 189 192 180 183 190 185 179 358 348 329
45 42 40 38 33 33 45 53 53 48 45 43 45 49 50 51 51 50 48 47 49 49 47 46 45 43 40 39 37 35 34 36 38 39 37 34 31 30 31 33 34 36 36 29 20 14 8 358 351 358 15 33 70 75 69 63 57 107 147 161 171 177 175 181 200 205 201 218 233 229 251 312 322 319